Flag for China Weather past 2 weeks in Hangzhou, Zhejiang, China

Now
81 °F

Sprinkles. Fog.


Feels Like: 85 °F
Forecast: 66 / 75 °F
Wind: No wind

Location: Hangzhou Airport

Current Time: Jun 2, 2015 at 9:38:16 PM

Latest Report: Jun 2, 2015 at 9:00 PM


Visibility: 1 mi

Pressure: 29.62 "Hg

Humidity: 79%

Dew point: 73 °F

Location of HangzhouLocation

Historic Weather in Hangzhou — Graph

°F

Hangzhou temperature yesterday

Maximum temperature yesterday: 88 °F (at 12:30 PM)
Minimum temperature yesterday: 68 °F (at 5:30 AM)
Average temperature yesterday: 80 °F

Past Weeks' High & Low Weather Summary

 TemperatureHumidityPressure
High88 °F (Jun 1, 12:30 PM)88% (May 18, 8:00 PM)30.07 "Hg (May 18, 8:00 PM)
Low57 °F (May 21, 3:30 AM)31% (May 21, 9:30 AM)29.56 "Hg (May 29, 4:00 PM)
Average74 °F68%29.77 "Hg
* Reported May 18 8:00 PM — Jun 2 8:00 PM, Hangzhou, Weather by CustomWeather, © 2015

Note: Actual official high and low records may vary slightly from our data, if they occured in-between our weather recording intervals... More about our weather records

Advertising

Hangzhou weather history for previous 24 hours

 ConditionsComfort  
Time TempWeatherWind HumidityBarometerVisibility
8:00 PM
Tue, Jun 2
79 °FFog.1 mph84%29.62 "Hg1 mi
7:30 PM79 °FFog.1 mph84%29.62 "Hg1 mi
7:00 PM79 °FSprinkles. Fog.1 mph84%29.59 "Hg1 mi
6:30 PM79 °FSprinkles. Fog.3 mph84%29.59 "Hg1 mi
6:00 PM79 °FSprinkles. Fog.3 mph84%29.59 "Hg1 mi
5:30 PM81 °FSprinkles. Fog.3 mph79%29.59 "Hg1 mi
5:00 PM81 °FSprinkles. Fog.3 mph84%29.59 "Hg1 mi
4:30 PM81 °FSprinkles. Fog.1 mph84%29.62 "Hg1 mi
4:00 PM82 °FSprinkles. Fog.3 mph79%29.62 "Hg2 mi
3:30 PM82 °FSprinkles. Fog.1 mph79%29.62 "Hg2 mi
3:00 PM82 °FSprinkles. Fog.3 mph79%29.62 "Hg2 mi
2:30 PM86 °FSprinkles. Partly sunny.3 mph66%29.62 "Hg4 mi
2:00 PM88 °FSprinkles. Partly sunny.1 mph59%29.62 "HgN/A
1:30 PM88 °FPartly sunny.3 mph59%29.62 "HgN/A
1:00 PM88 °FPartly sunny.1 mph59%29.65 "HgN/A
12:30 PM88 °FPartly sunny.1 mph62%29.65 "HgN/A
11:30 AM88 °FPartly sunny.No wind59%29.65 "HgN/A
10:30 AM86 °FPartly sunny.1 mph62%29.68 "HgN/A
10:00 AM86 °FPartly sunny.1 mph62%29.68 "HgN/A
9:30 AM84 °FPartly sunny.1 mph66%29.68 "HgN/A
9:00 AM84 °FPartly sunny.1 mph66%29.68 "HgN/A
8:30 AM84 °FSunny.1 mph66%29.65 "Hg10 mi
8:00 AM84 °FSunny.No wind70%29.65 "Hg10 mi
7:30 AM81 °FClear.3 mph74%29.65 "Hg4 mi
7:00 AM81 °FClear.1 mph74%29.65 "Hg4 mi
6:30 AM81 °FClear.3 mph74%29.65 "Hg4 mi
6:00 AM79 °FFog.1 mph79%29.65 "Hg3 mi
5:30 AM79 °FFog.No wind79%29.65 "Hg1 mi
5:00 AM77 °FFog.No wind83%29.62 "Hg1 mi
4:30 AM79 °FFog.1 mph79%29.62 "Hg1 mi
4:00 AM79 °FFog.1 mph79%29.62 "Hg1 mi
3:30 AM79 °FFog.No wind74%29.62 "Hg1 mi
3:00 AM77 °FFog.No wind83%29.62 "Hg1 mi
2:30 AM79 °FFog.No wind79%29.65 "Hg1 mi
2:00 AM79 °FFog.No wind79%29.65 "Hg1 mi
1:30 AM79 °FFog.1 mph79%29.65 "Hg2 mi
1:00 AM79 °FHaze.No wind79%29.68 "Hg2 mi
12:30 AM81 °FHaze.1 mph74%29.68 "Hg2 mi
12:00 AM79 °FHaze.No wind79%29.68 "Hg2 mi
11:30 PM
Mon, Jun 1
81 °FHaze.No wind74%29.68 "Hg2 mi
11:00 PM79 °FFog.1 mph79%29.68 "Hg2 mi
10:30 PM82 °FHaze.1 mph66%29.68 "Hg2 mi
10:00 PM82 °FHaze.1 mph66%29.71 "Hg2 mi
9:30 PM81 °FHaze.3 mph70%29.71 "Hg2 mi
9:00 PM81 °FHaze.3 mph70%29.71 "Hg2 mi
Weather by CustomWeather, © 2015

See weather overviewHow to use our weather pages